sat.trackr.live / text

‹ back to catalog

JILIN-01 KUANFU 02B 1

NORAD 61189 · 2024-169A

PAYLOAD ACTIVE UNKNOWN

§ Identity

Operator
Country
PRC
Launch date
2024-09-20
Launch site
TAISC
Launch vehicle
Mass (kg)
RCS (m²)

External: N2YO · Heavens-Above · Gunter

§ Orbital elements

Epoch: 2026-05-25T04:04:42.311424Z

Period
95.45 min
Inclination
97.5565°
Eccentricity
0.0004310
Mean motion
15.08695920 rev/d
Perigee alt
537.2 km
Apogee alt
543.2 km
Semi-major
6,918.3 km
B*
2.0727e-4
RAAN
235.0431°
Arg perigee
115.0388°
Mean anomaly
245.1288°
Rev number
9,235

§ Raw data

JILIN-01 KUANFU 02B 11 61189U 24169A   26145.16993416  .00003187  00000+0  20727-3 0  99932 61189  97.5565 235.0431 0004310 115.0388 245.1288 15.08695920 92350

JSON: /api/v1/satellites/61189 · /tle

For live sub-satellite position, see the globe view (requires WebGL).

§ Visibility from observer

Set your observer location to see the next 7 days of passes ≥ 10°. The values pass through the URL so the page stays shareable.

No JS? Fill the form by hand. The geolocation button needs JavaScript.